Погода в Байките

Погода в Байките : погода сейчас, прогноз погоды и архив. Всё, что Вы хотите узнать о погоде в Байките!

Хотите узнать прогноз погоды в Байките? Тогда Вам сюда: Погода в Байките

Поиск расширенной информации на нашем сайте:

Другие новости

Новости СМИ2

Главная страница сайта

Новости сайта

03.07.2017

Напоминаем, что на нашем специализированном сайте Метеоцентр.Азия вы можете получить высокодетализированные автоматические прогнозы погоды по пунктам России, СНГ и мира в авиационном формате (включающие направление и скорость ветра, видимость, явления погоды, количество и форму облачности, нижнюю и верхнюю границу облачности).


Погода в Байките - сегодня

Время (UTC), дата Ветер
(°,м/с) 
Видим.   Явления Облачность Т
(°С)
Тd
(°С)
f(%) Тe
(°С)
Pmin
(гПа)
dP
(гПа)
Po
(мм)
O2
(г/м3)
Тmin Tmax R s Состояние
почвы
15 18.06.18 310 (СЗ) 20000 м    6/1 1000 м верхняя 
[Sc|Ci fib]
+20.8 +8.7 46 +21  1008.8  -0.5  735  274           
18 18.06.18 тихо ()   4000 м    3/0 верхняя 
[Ci fib]
+13.9 +8.8 71 +14  1009.7  0.2  735  280           
21 18.06.18 тихо ()   20000 м    4/0 верхняя 
[Ci fib]
+10.1 +8.5 90 +10  1009.8  -0.2  735  284           
00 19.06.18 тихо ()   20000 м    3/0 верхняя 
[Ci fib]
+12.8 +9.5 80 +14  1009.1  -0.5  735  281  +10.1         
03 19.06.18 150 (ЮВ) 20000 м    3/0 верхняя 
[Ci fib]
+20.8 +10.3 51 +23  1007.2  -1  734  273           
06 19.06.18 130 (ЮВ) 20000 м    4/1 1000 м верхняя 
[Cu med, cong|Ci fib]
+29.6 +11 32 +33  1003.4  -2.8  732  264           
09 19.06.18 160 (Ю) 20000 м    1/0 верхняя 
[Ci fib]
+30.4 +7.8 24 +30  1001.7  -1.6  731  264           
12 19.06.18 170 (Ю) 20000 м    1/0 верхняя 
[Ci fib]
+29 +6.2 24 +29  1000.8  -1  730  265    +31       
15 19.06.18 320 (СЗ) 20000 м    9/0 верхняя 
[Ci]
+21.8 +11.9 53 +26  1001.1  -0.4  730  270           
18 19.06.18 310 (СЗ) 4000 м    ясно 
+14.2 +10.4 78 +17  1002  0.2  730  278           
21 19.06.18 030 (СВ) 20000 м    1/0 средняя 
[Ac trans]
+11.7 +9.3 85 +14  1002  -0.3  730  280           
00 20.06.18 тихо ()   20000 м    3/0 верхняя 
[Ci fib]
+16.3 +11.3 72 +20  1000.8  -0.7  729  275  +11.6         
03 20.06.18 230 (ЮЗ) 20000 м    4/0 средняя, верхняя 
[Ac trans|Ci fib]
+25 +13.2 48 +31  998.5  -1.4  728  266           
06 20.06.18 150 (ЮВ) 20000 м    8/1 1000 м средняя, верхняя 
[Cu hum|Ac lent|Ci sp]
+32.2 +15.5 37 +43  996.5  -1.3  727  259           
09 20.06.18 тихо ()   20000 м    9/4 1000 м кучево-дожд., средняя, верхняя 
[Cb cap|Ac lent|Ci fib]
+29.7 +15 41 +39  995.7  -1  726  261           
12 20.06.18 040 (СВ) 4000 м  гроза, ливневой дождь  10/10 600 м кучево-дожд. 
[Cb cap]
+18 +16.8 93 +32  1000  3.1  729  272    +32.6     
15 20.06.18 170 (Ю) 20000 м  {гроза}  9/8 600 м кучево-дожд., верхняя 
[Cb cap|Ci fib]
+16.4 +16.1 98 +29  1000.5  0.3  729  273           
18 20.06.18 тихо ()   4000 м  дымка{гроза, ливн. осадки}  6/5 600 м кучево-дожд., верхняя 
[Cb cap|Ci fib]
+14.8 +14.4 97 +23  1001.3  0.7  729  276           
21 20.06.18 тихо ()   0200 м    ?/?  
+12.9 +12.9 100 +19  1002.1  54.2  730  278           
00 21.06.18 тихо ()   0200 м  туман  ?/?  
+13.4 +13.4 100 +20  1002.8  0.6  730  278  +12.8       
03 21.06.18 100 (В) 20000 м  {туман}  8/3 600 м кучево-дожд., верхняя 
[Cb cap|Cc]
+18.6 +15.7 83 +31  1001.7  -0.4  730  272           
06 21.06.18 200 (Ю) 20000 м  {туман}  9/8 600 м кучево-дожд., верхняя 
[Cb cap|Ci fib]
+24.5 +11.2 43 +28  1000  -1.2  729  267           
09 21.06.18 180 (Ю) 20000 м  гроза без осадков  9/9 600 м кучево-дожд. 
[Cb cap]
+24.3 +10.5 42 +27  998.6  -1.7  728  267           
12 21.06.18 290 (З) 20000 м  гроза, ливневой дождь  9/9 600 м кучево-дожд. 
[Cb cap]
+19.1 +12.7 66 +27  1001.5  2.4  730  272    +24.5  0.0     
15 21.06.18 170 (Ю) 20000 м  {гроза, ливн. осадки}  9/4 600 м верхняя 
[Sc diur, vesp|Cc]
+15.9 +12.7 81 +23  1002  0.1  730  275           
Время (UTC), дата Ветер
(°,м/с) 
Видим.   Явления Облачность Т
(°С)
Тd
(°С)
f(%) Тe
(°С)
Pmin
(гПа)
dP
(гПа)
Po
(мм)
O2
(г/м3)
Тmin Tmax R s Состояние
почвы

Для получения пояснительной информации подведите курсор к названию столбца.

ПОГОДА в Байките - архив

Всё, что Вы хотите узнать о погоде в Байките - удобно и подробно!

Выберите нужную дату (начиная с 1 января 2015* года) и нажмите кнопку "Найти".
Будут отображены архивные сводки погоды по пункту Байкит, начиная с указанной даты.


Отображать данные в формате CSV (для использования в таблицах Excel)


Внимание! Наш архив погоды предназначен исключительно для личного некоммерческого использования в познавательных целях. Если Вам необходимы официальные справки о состоянии погоды (для производственных, юридических, коммерческих и т.п. целей), обращайтесь в органы Росгидромета.

*Примечание: данная дата относится к архиву по метеостанциям СССР (Россия, СНГ, Балтия).
Архив по метеостанциям Зарубежной Европы и Азии (кроме Китая) хранится 10 дней, по другим регионам земного шара (Китай, Африка, Америка, Австралия, Океания) - 1 день.

Байкит - район местоположения метеостанции


Название, широта, долгота, высота метеостанции:
Байкит 61.7°ш. 96.4°д. 262 м над ур. моря [Российская Федерация]

Дополнительная информация

В oтличие oт бoльшинства пoгoдных сайтoв мы публикуем пoдрoбную метеoинфoрмацию в детальнoм прoфессиoнальнoм фoрмате.

Характеристики температуры и влажнoсти вoздуха измеряются на высoте 2 м в тени вдали oт зданий и деревьев.
Скoрoсть ветра измеряется на высoте 10 м (на урoвне рoста челoвека скoрoсть ветра ниже в 1.5-2 раза). Если метеoстанция нахoдится в гoрoде или в лесу, тo скoрoсть ветра занижена на 2-4 м/с пo сравнению с oткрытым местoм. Скoрoсть ветра над акватoриями крупных рек и oзёр, а также на вершинах хoлмoв на 2-5 м/с выше, чем в oбычных услoвиях.
Атмoсфернoе давление в разных тoчках местнoсти мoжет значительнo oтличаться oт давления на метеoстанции, в зависимoсти oт услoвий рельефа (при пoдъёме на 10 м давление пoнижается примернo на 1 мм рт.ст.).